Regional Weather Roundup
Issued by NWS

Home | Current Version | Previous Version | Text Only | Print | Product List | Glossary Off
Versions: 1 2 3 4 5 6 7 8 9 10 11 12 13 14 15 16 17 18 19 20 21 22 23 24 25 26 27 28 29 30 31 32 33 34 35 36 37 38 39 40 41 42 43 44 45 46 47 48 49 50

000
ASUS45 KCYS 160210
RWRWY

WYOMING REGIONAL WEATHER ROUNDUP
NATIONAL WEATHER SERVICE CHEYENNE WY
700 PM MST MON JAN 15 2018

NOTE:  "FAIR" INDICATES FEW OR NO CLOUDS BELOW 12,000 FEET
WITH NO SIGNIFICANT WEATHER AND/OR OBSTRUCTIONS TO VISIBILITY.

WYZ001-160300-
YELLOWSTONE NATIONAL PARK

CITY           SKY/WX    TMP DP  RH WIND       PRES   REMARKS
LK YELLOWSTONE   N/A      9   6  88 CALM      30.38R
W YELLOWSTONE  NOT AVBL

$$
WYZ002>013-054>058-071-098>099-160300-
NORTHERN WYOMING

CITY           SKY/WX    TMP DP  RH WIND       PRES   REMARKS
JACKSON        FOG       15  14  95 CALM      30.38S VSB 1/4
CODY           CLOUDY    17  12  80 CALM      30.48S
GREYBULL       FAIR       9   4  80 E7        30.55F WCI  -2
WORLAND        FAIR       5   1  83 SE3       30.54S
SHERIDAN       FAIR     -11 -14  86 CALM      30.57F
BUFFALO        FAIR       3  -5  69 CALM      30.50F
GILLETTE       FAIR      -8 -12  83 S5        30.57S WCI -19
HULETT         FAIR     -11 -17  77 MISG      30.59R
NEWCASTLE      FAIR      -6 -11  77 N6        30.61R WCI -18

$$
WYZ014>020-022>026-101>103-160300-
CENTRAL WYOMING

CITY           SKY/WX    TMP DP  RH WIND       PRES   REMARKS
BIG PINEY      CLOUDY    26  19  74 S8        30.40R WCI  18
PINEDALE       CLOUDY    25  19  80 S3        30.41S
DUBOIS         CLOUDY    19  16  86 W7        30.38R WCI  10
LANDER         CLOUDY    23  16  74 SE5       30.44S WCI  17
RIVERTON       CLOUDY    17   8  67 NE7       30.47R WCI   8
CASPER         FAIR      -1  -4  87 CALM      30.49F
DOUGLAS        FAIR       3  -8  60 NW3       30.53S

$$
WYZ021-027>030-104>119-160300-
SOUTHERN WYOMING

CITY           SKY/WX    TMP DP  RH WIND       PRES   REMARKS
EVANSTON       FAIR      26  19  74 E15       30.35R WCI  14
FORT BRIDGER   MOCLDY    25  18  76 E9        30.41R WCI  15
ROCK SPRINGS   FAIR      17  10  74 E8        30.41R WCI   7
DIXON            N/A     20   5  50 SE7       30.43R WCI  12
RAWLINS        FAIR      10   0  63 NW5       30.42R WCI   2
SARATOGA       FAIR      12  -6  44 NW3       30.42R
LARAMIE        FAIR       6  -4  63 NE7       30.37R WCI  -6
CHEYENNE       FAIR       5  -3  69 NW8       30.43R WCI  -8
TORRINGTON     FAIR       6  -2  69 NW7       30.58R WCI  -6

$$



USA.gov is the U.S. government's official web portal to all federal, state and local government web resources and services.